Location: Arroyo Mobile Home Park
(34.3733°N, 119.3071°W)
Time: 11:00:25
(UTC+00:00)

CZ-3C R/B - Pass Details

Date: 03 August 2024
Orbit: 267 x 32381 km, 20.5° (Epoch: 11 September)

Event Time Altitude Azimuth Distance (km) Brightness Sun altitude
Exits shadow 11:08:36 26° 194° (SSW) 2,711 3.8 -22.1°
Maximum altitude 11:13:20 39° 145° (SE) 3,480 4.7 -21.4°
Drops below altitude 10° 19:00:03 10° 130° (SE) 22,439 9.4 67.8°
Sets 19:25:53 0° 127° (SE) 18,579 8.8 70.9°
